Tracking 32579 objects as of 15-Dec-2025
HD Live streaming from Space Station
objects crossing your sky now

LUCH DEB

Track LUCH DEB now!


NORAD ID: 44582
Int'l Code: 1994-082G
Perigee: 35,619.1 km
Apogee: 35,735.3 km
Inclination: 14.6 °
Period: 1,430.1 minutes
Semi major axis: 42048 km
RCS: Unknown
Launch date: December 16, 1994
Source: Commonwealth of Independent States (former USSR) (CIS)
Launch site: TYURATAM MISSILE AND SPACE COMPLEX (TTMTR)

Note: This is SATELLITE DEBRIS
Your satellite tracking list
Your tracking list is empty




NASA's NSSDC Master Catalog

Two Line Element Set (TLE):
1 44582U 94082G   25348.90761731 -.00000233  00000-0  00000-0 0  9991
2 44582  14.6146 355.4685 0013825 105.0221 269.1802  1.00688999 44391
Source of the keplerian elements: AFSPC